Location: Malvern Link
(52.1333°N, 2.3000°W)
Time: 14:45:19
(UTC+00:00)

Cosmos 1634 Rocket - Pass Details

Date: 30 November 2021
Orbit: 959 x 993 km, 82.9° (Epoch: 23 January)

Event Time Altitude Azimuth Distance (km) Brightness Sun altitude
Rises 19:24:21 0° 214° (SW) 3,695 7.4 -30.2°
Reaches altitude 10° 19:27:02 10° 222° (SW) 2,752 6.8 -30.6°
Maximum altitude 19:32:56 40° 291° (WNW) 1,427 5.2 -31.5°
Drops below altitude 10° 19:38:54 10° 360° (N) 2,770 6.4 -32.4°
Sets 19:41:37 0° 8° (N) 3,720 7.0 -32.8°
